Regional Weather Roundup
Issued by NWS

Home | Current Version | Previous Version | Text Only | Print | Product List | Glossary On
Versions: 1 2 3 4 5 6 7 8 9 10 11 12 13 14 15 16 17 18 19 20 21 22 23 24 25 26 27 28 29 30 31 32 33 34 35 36 37 38 39 40 41 42 43 44 45 46 47 48 49 50
667
ASUS44 KFWD 270303
RWRTX
NORTH TEXAS HOURLY WEATHER ROUNDUP
NATIONAL WEATHER SERVICE FORT WORTH TX
1000 PM CDT SUN MAR 26 2017

NOTE: "FAIR" INDICATES FEW OR NO CLOUDS BELOW 12,000 FEET WITH NO
SIGNIFICANT WEATHER AND/OR OBSTRUCTIONS TO VISIBILITY.

TXZ118-119-270400-
DALLAS/FORT WORTH METROPLEX

CITY           SKY/WX    TMP DP  RH WIND       PRES   REMARKS
DFW AIRPORT    CLOUDY    78  60  53 S21G29    29.74R
DALLAS LOVE    CLOUDY    79  57  46 S20G28    29.76R
FTW MEACHAM    CLOUDY    75  59  57 S13G23    29.76R
DAL-EXECUTIVE  LGT RAIN  76  60  57 S10G28    29.76R
FTW-ALLIANCE   CLOUDY    75  60  59 SW8       29.77R
FTW-SPINKS     CLOUDY    72  61  68 S17G25    29.78R
ARLINGTON      CLOUDY    74  60  61 S16G30    29.76R
GRAND PRAIRIE  CLOUDY    75  59  58 S17G24    29.78R
ADDISON        PTCLDY    77  57  50 S15G36    29.76R
MESQUITE       CLOUDY    75  55  49 S13G18    29.77R
LANCASTER      CLOUDY    76  58  54 SW16G22   29.79R
$$

TXZ091>094-102>105-117-120-121-131>134-270400-
NORTH CENTRAL TEXAS

CITY           SKY/WX    TMP DP  RH WIND       PRES   REMARKS
SHRMAN/DENISON TSTM      65  60  85 S10       29.79F
GAINESVILLE    CLOUDY    63  60  90 SE8       29.78R
BOWIE          PTCLDY    64  62  94 E5        29.75R
BRIDGEPORT     CLEAR     68  60  74 S12       29.75R
DECATUR        PTCLDY    66  61  84 SE8       29.77R
DENTON         CLOUDY    64  63  96 N3        29.77R
MCKINNEY       CLOUDY    68  60  75 NW16G25   29.77R
BONHAM         TSTM      68  61  77 NW8       29.78R
ROCKWALL       CLOUDY    75  60  58 S12G24    29.76R
TERRELL        CLOUDY    76  60  57 S14G23    29.77R
WAXAHACHIE     CLOUDY    74  61  64 S17G25    29.79R
CLEBURNE       CLOUDY    68  66  94 S17G25    29.80R
GRANBURY       CLOUDY    71  61  72 SE10G23   29.78R
$$

TXZ083>090-098>101-113>116-127>130-139>142-154-155-270400-
WESTERN NORTH TEXAS

CITY           SKY/WX    TMP DP  RH WIND       PRES   REMARKS
WICHITA FALLS  CLEAR     65  38  36 S9        29.68R
WF-KICKAPOO    CLEAR     64  40  41 SE9       29.71R
VERNON         CLEAR     68  33  26 N21       29.75R
ABILENE        CLEAR     63  38  39 S6        29.78R
ABILENE-DYESS  CLEAR     55  39  54 SW8       29.77R
GRAHAM         CLEAR     60  44  54 CALM      29.72R
BRECKENRIDGE   CLEAR     68  35  29 SW9       29.74R
CISCO          PTCLDY    70  32  24 W5        29.75S
RANGER         CLEAR     63  54  72 S3        29.77R
MINERAL WELLS  CLEAR     68  58  70 SE15      29.74R
STEPHENVILLE   PTCLDY    66  59  77 CALM      29.81R
COMANCHE       CLEAR     66  57  72 SE6       29.79R
BROWNWOOD      PTCLDY    63  48  59 SE8       29.78R
COLEMAN        CLEAR     68  32  26 W5        29.77R
$$

TXZ143>147-156>162-174-175-270400-
CENTRAL TEXAS

CITY           SKY/WX    TMP DP  RH WIND       PRES   REMARKS
WACO           CLOUDY    75  62  64 S20G29    29.79R
WACO-TSTC      PTCLDY    75  61  60 S17G26    29.79R
WACO-MCGREGOR  CLOUDY    74  62  66 SE14      29.81R
HILLSBORO      TSTM      68  63  85 SE23G31   29.80S
CORSICANA      LGT RAIN  75  60  59 S20G25    29.80R
MEXIA          CLOUDY    74  60  62 SE18G30   29.79F
HEARNE         PTCLDY    73  66  80 SE9       29.87R
CAMERON        CLOUDY    73  64  73 S9        29.82R
TEMPLE         CLOUDY    74  64  71 SE17      29.80R
KILLEEN        CLOUDY    73  60  63 SE9       29.78R
KILLEEN-SKYLRK CLOUDY    74  65  73 SE20G29   29.78R
FORT HOOD      CLOUDY    73  64  73 S12G24    29.77R
GATESVILLE     LGT RAIN  63  63 100 SW8G22    29.83R
HAMILTON       CLOUDY    64  57  78 S8        29.80R
LAMPASAS       CLOUDY    72  60  65 NE3       29.80R
$$

TXZ095>097-106>112-122>126-135>138-148>153-164>167-270400-
EAST TEXAS

CITY           SKY/WX    TMP DP  RH WIND       PRES   REMARKS
PARIS          CLOUDY    73  55  53 SE13      29.77F
SULPHUR SPRNGS CLOUDY    76  55  47 S14G22    29.81R THUNDER
MOUNT PLEASANT CLOUDY    74  57  56 S13G18    29.82R
GILMER         CLOUDY    73  58  58 S10G17    29.82R
MINEOLA        CLOUDY    75  57  53 S13G20    29.79S
TYLER          CLOUDY    74  59  59 S16G24    29.83R
LONGVIEW       CLOUDY    74  61  63 S14       29.84R
MARSHALL       CLOUDY    73  59  62 S6        29.88R
ATHENS         CLOUDY    72  61  68 S13       29.82R
PALESTINE      PTCLDY    73  64  73 SE10G20   29.85R
JACKSONVILLE   CLOUDY    72  63  72 S15G21    29.87R
HENDERSON      CLOUDY    73  60  64 S12G20    29.86R
CENTER         CLOUDY    75  66  73 S12G21    29.88S
NACOGDOCHES    MOCLDY    72  63  73 S10G16    29.88R
LUFKIN         MOCLDY    70  64  81 S9        29.88R
$$

SUPPLEMENTAL OBSERVATIONS (CENTRAL)

CITY           SKY/WX    TMP DP  RH WIND       PRES   REMARKS
$$

SUPPLEMENTAL OBSERVATIONS (WEST)

CITY           SKY/WX    TMP DP  RH WIND       PRES   REMARKS
$$

SUPPLEMENTAL OBSERVATIONS (EAST)

CITY           SKY/WX    TMP DP  RH WIND       PRES   REMARKS
$$

SUPPLEMENTAL OBSERVATIONS ARE A COLLECTION OF AUTOMATED INSTRUMENTS
THAT ARE MAINTAINED BY A VARIETY OF FEDERAL AND STATE AGENCIES.
CERTAIN ELEMENTS...SUCH AS HUMIDITY VALUES AND SUSTAINED WIND
SPEEDS...MAY BE APPROXIMATED.





USA.gov is the U.S. government's official web portal to all federal, state and local government web resources and services.